Year,Month,Day,Hour,Minute,Value (Times are PST for temperature in C)
2021,04,15,00,00,8.60
2021,04,15,00,01,8.60
2021,04,15,00,02,8.60
2021,04,15,00,03,8.60
2021,04,15,00,04,8.50
2021,04,15,00,05,8.50
2021,04,15,00,06,8.40
2021,04,15,00,07,8.40
2021,04,15,00,08,8.40
2021,04,15,00,09,8.30
2021,04,15,00,10,8.30
2021,04,15,00,11,8.30
2021,04,15,00,12,8.30
2021,04,15,00,13,8.30
2021,04,15,00,14,8.20
2021,04,15,00,15,8.20
2021,04,15,00,16,8.20
2021,04,15,00,17,8.20
2021,04,15,00,18,8.20
2021,04,15,00,19,8.10
2021,04,15,00,20,8.10
2021,04,15,00,21,8.10
2021,04,15,00,22,8.10
2021,04,15,00,23,8.10
2021,04,15,00,24,8.10
2021,04,15,00,25,8.10
2021,04,15,00,26,8.10
2021,04,15,00,27,8.10
2021,04,15,00,28,8.10
2021,04,15,00,29,8.10
2021,04,15,00,30,8.10
2021,04,15,00,31,8.10
2021,04,15,00,32,8.10
2021,04,15,00,33,8.10
2021,04,15,00,34,8.10
2021,04,15,00,35,8.10
2021,04,15,00,36,8.10
2021,04,15,00,37,8.10
2021,04,15,00,38,8.10
2021,04,15,00,39,8.10
2021,04,15,00,40,8.10
2021,04,15,00,41,8.10
2021,04,15,00,42,8.10
2021,04,15,00,43,8.00
2021,04,15,00,44,8.00
2021,04,15,00,45,7.90
2021,04,15,00,46,7.90
2021,04,15,00,47,7.90
2021,04,15,00,48,7.80
2021,04,15,00,49,7.80
2021,04,15,00,50,7.70
2021,04,15,00,51,7.70
2021,04,15,00,52,7.70
2021,04,15,00,53,7.60
2021,04,15,00,54,7.60
2021,04,15,00,55,7.60
2021,04,15,00,56,7.60
2021,04,15,00,57,7.60
2021,04,15,00,58,7.60
2021,04,15,00,59,7.60
2021,04,15,01,00,7.60
2021,04,15,01,01,7.60
2021,04,15,01,02,7.60
2021,04,15,01,03,7.60
2021,04,15,01,04,7.60
2021,04,15,01,05,7.60
2021,04,15,01,06,7.70
2021,04,15,01,07,7.70
2021,04,15,01,08,7.70
2021,04,15,01,09,7.70
2021,04,15,01,10,7.70
2021,04,15,01,11,7.70
2021,04,15,01,12,7.70
2021,04,15,01,13,7.70
2021,04,15,01,14,7.70
2021,04,15,01,15,7.70
2021,04,15,01,16,7.70
2021,04,15,01,17,7.70
2021,04,15,01,18,7.70
2021,04,15,01,19,7.70
2021,04,15,01,20,7.60
2021,04,15,01,21,7.60
2021,04,15,01,22,7.60
2021,04,15,01,23,7.60
2021,04,15,01,24,7.50
2021,04,15,01,25,7.50
2021,04,15,01,26,7.40
2021,04,15,01,27,7.40
2021,04,15,01,28,7.40
2021,04,15,01,29,7.40
2021,04,15,01,30,7.40
2021,04,15,01,31,7.40
2021,04,15,01,32,7.40
2021,04,15,01,33,7.40
2021,04,15,01,34,7.40
2021,04,15,01,35,7.40
2021,04,15,01,36,7.30
2021,04,15,01,37,7.30
2021,04,15,01,38,7.30
2021,04,15,01,39,7.30
2021,04,15,01,40,7.30
2021,04,15,01,41,7.30
2021,04,15,01,42,7.30
2021,04,15,01,43,7.30
2021,04,15,01,44,7.30
2021,04,15,01,45,7.30
2021,04,15,01,46,7.30
2021,04,15,01,47,7.30
2021,04,15,01,48,7.20
2021,04,15,01,49,7.20
2021,04,15,01,50,7.20
2021,04,15,01,51,7.20
2021,04,15,01,52,7.20
2021,04,15,01,53,7.10
2021,04,15,01,54,7.10
2021,04,15,01,55,7.10
2021,04,15,01,56,7.10
2021,04,15,01,57,7.10
2021,04,15,01,58,7.00
2021,04,15,01,59,7.00
2021,04,15,02,00,7.00
2021,04,15,02,01,7.00
2021,04,15,02,02,7.00
2021,04,15,02,03,7.00
2021,04,15,02,04,7.00
2021,04,15,02,05,7.00
2021,04,15,02,06,7.00
2021,04,15,02,07,6.90
2021,04,15,02,08,6.90
2021,04,15,02,09,6.90
2021,04,15,02,10,6.90
2021,04,15,02,11,6.90
2021,04,15,02,12,6.90
2021,04,15,02,13,6.90
2021,04,15,02,14,6.90
2021,04,15,02,15,6.90
2021,04,15,02,16,6.80
2021,04,15,02,17,6.80
2021,04,15,02,18,6.80
2021,04,15,02,19,6.80
2021,04,15,02,20,6.80
2021,04,15,02,21,6.80
2021,04,15,02,22,6.80
2021,04,15,02,23,6.80
2021,04,15,02,24,6.70
2021,04,15,02,25,6.70
2021,04,15,02,26,6.70
2021,04,15,02,27,6.70
2021,04,15,02,28,6.70
2021,04,15,02,29,6.70
2021,04,15,02,30,6.70
2021,04,15,02,31,6.70
2021,04,15,02,32,6.70
2021,04,15,02,33,6.70
2021,04,15,02,34,6.60
2021,04,15,02,35,6.60
2021,04,15,02,36,6.60
2021,04,15,02,37,6.60
2021,04,15,02,38,6.50
2021,04,15,02,39,6.50
2021,04,15,02,40,6.50
2021,04,15,02,41,6.50
2021,04,15,02,42,6.40
2021,04,15,02,43,6.40
2021,04,15,02,44,6.40
2021,04,15,02,45,6.40
2021,04,15,02,46,6.40
2021,04,15,02,47,6.40
2021,04,15,02,48,6.40
2021,04,15,02,49,6.40
2021,04,15,02,50,6.30
2021,04,15,02,51,6.30
2021,04,15,02,52,6.30
2021,04,15,02,53,6.30
2021,04,15,02,54,6.30
2021,04,15,02,55,6.30
2021,04,15,02,56,6.30
2021,04,15,02,57,6.20
2021,04,15,02,58,6.20
2021,04,15,02,59,6.20
2021,04,15,03,00,6.20
2021,04,15,03,01,6.20
2021,04,15,03,02,6.20
2021,04,15,03,03,6.20
2021,04,15,03,04,6.10
2021,04,15,03,05,6.10
2021,04,15,03,06,6.10
2021,04,15,03,07,6.10
2021,04,15,03,08,6.10
2021,04,15,03,09,6.10
2021,04,15,03,10,6.10
2021,04,15,03,11,6.10
2021,04,15,03,12,6.10
2021,04,15,03,13,6.10
2021,04,15,03,14,6.10
2021,04,15,03,15,6.10
2021,04,15,03,16,6.10
2021,04,15,03,17,6.10
2021,04,15,03,18,6.10
2021,04,15,03,19,6.10
2021,04,15,03,20,6.10
2021,04,15,03,21,6.20
2021,04,15,03,22,6.10
2021,04,15,03,23,6.10
2021,04,15,03,24,6.10
2021,04,15,03,25,6.10
2021,04,15,03,26,6.10
2021,04,15,03,27,6.10
2021,04,15,03,28,6.10
2021,04,15,03,29,6.10
2021,04,15,03,30,6.00
2021,04,15,03,31,6.00
2021,04,15,03,32,6.00
2021,04,15,03,33,5.90
2021,04,15,03,34,5.90
2021,04,15,03,35,5.90
2021,04,15,03,36,5.90
2021,04,15,03,37,5.80
2021,04,15,03,38,5.80
2021,04,15,03,39,5.80
2021,04,15,03,40,5.80
2021,04,15,03,41,5.80
2021,04,15,03,42,5.80
2021,04,15,03,43,5.80
2021,04,15,03,44,5.80
2021,04,15,03,45,5.80
2021,04,15,03,46,5.80
2021,04,15,03,47,5.80
2021,04,15,03,48,5.70
2021,04,15,03,49,5.70
2021,04,15,03,50,5.70
2021,04,15,03,51,5.70
2021,04,15,03,52,5.60
2021,04,15,03,53,5.60
2021,04,15,03,54,5.60
2021,04,15,03,55,5.50
2021,04,15,03,56,5.50
2021,04,15,03,57,5.50
2021,04,15,03,58,5.50
2021,04,15,03,59,5.40
2021,04,15,04,00,5.40
2021,04,15,04,01,5.40
2021,04,15,04,02,5.40
2021,04,15,04,03,5.40
2021,04,15,04,04,5.40
2021,04,15,04,05,5.40
2021,04,15,04,06,5.40
2021,04,15,04,07,5.40
2021,04,15,04,08,5.40
2021,04,15,04,09,5.40
2021,04,15,04,10,5.40
2021,04,15,04,11,5.40
2021,04,15,04,12,5.40
2021,04,15,04,13,5.40
2021,04,15,04,14,5.30
2021,04,15,04,15,5.30
2021,04,15,04,16,5.30
2021,04,15,04,17,5.30
2021,04,15,04,18,5.30
2021,04,15,04,19,5.30
2021,04,15,04,20,5.30
2021,04,15,04,21,5.30
2021,04,15,04,22,5.30
2021,04,15,04,23,5.30
2021,04,15,04,24,5.30
2021,04,15,04,25,5.30
2021,04,15,04,26,5.30
2021,04,15,04,27,5.30
2021,04,15,04,28,5.30
2021,04,15,04,29,5.30
2021,04,15,04,30,5.40
2021,04,15,04,31,5.40
2021,04,15,04,32,5.30
2021,04,15,04,33,5.30
2021,04,15,04,34,5.30
2021,04,15,04,35,5.30
2021,04,15,04,36,5.30
2021,04,15,04,37,5.30
2021,04,15,04,38,5.30
2021,04,15,04,39,5.20
2021,04,15,04,40,5.20
2021,04,15,04,41,5.20
2021,04,15,04,42,5.20
2021,04,15,04,43,5.20
2021,04,15,04,44,5.20
2021,04,15,04,45,5.10
2021,04,15,04,46,5.10
2021,04,15,04,47,5.10
2021,04,15,04,48,5.10
2021,04,15,04,49,5.10
2021,04,15,04,50,5.10
2021,04,15,04,51,5.10
2021,04,15,04,52,5.10
2021,04,15,04,53,5.10
2021,04,15,04,54,5.10
2021,04,15,04,55,5.00
2021,04,15,04,56,5.00
2021,04,15,04,57,5.00
2021,04,15,04,58,5.00
2021,04,15,04,59,5.00
2021,04,15,05,00,5.00
2021,04,15,05,01,5.00
2021,04,15,05,02,5.00
2021,04,15,05,03,5.00
2021,04,15,05,04,4.90
2021,04,15,05,05,4.90
2021,04,15,05,06,4.90
2021,04,15,05,07,4.80
2021,04,15,05,08,4.80
2021,04,15,05,09,4.80
2021,04,15,05,10,4.80
2021,04,15,05,11,4.80
2021,04,15,05,12,4.80
2021,04,15,05,13,4.70
2021,04,15,05,14,4.70
2021,04,15,05,15,4.70
2021,04,15,05,16,4.70
2021,04,15,05,17,4.70
2021,04,15,05,18,4.70
2021,04,15,05,19,4.70
2021,04,15,05,20,4.70
2021,04,15,05,21,4.70
2021,04,15,05,22,4.70
2021,04,15,05,23,4.70
2021,04,15,05,24,4.70
2021,04,15,05,25,4.70
2021,04,15,05,26,4.70
2021,04,15,05,27,4.70
2021,04,15,05,28,4.70
2021,04,15,05,29,4.70
2021,04,15,05,30,4.70
2021,04,15,05,31,4.70
2021,04,15,05,32,4.70
2021,04,15,05,33,4.70
2021,04,15,05,34,4.70
2021,04,15,05,35,4.70
2021,04,15,05,36,4.70
2021,04,15,05,37,4.70
2021,04,15,05,38,4.60
2021,04,15,05,39,4.60
2021,04,15,05,40,4.60
2021,04,15,05,41,4.60
2021,04,15,05,42,4.60
2021,04,15,05,43,4.50
2021,04,15,05,44,4.50
2021,04,15,05,45,4.50
2021,04,15,05,46,4.50
2021,04,15,05,47,4.50
2021,04,15,05,48,4.50
2021,04,15,05,49,4.50
2021,04,15,05,50,4.50
2021,04,15,05,51,4.50
2021,04,15,05,52,4.60
2021,04,15,05,53,4.60
2021,04,15,05,54,4.50
2021,04,15,05,55,4.50
2021,04,15,05,56,4.50
2021,04,15,05,57,4.50
2021,04,15,05,58,4.50
2021,04,15,05,59,4.60
2021,04,15,06,00,4.60
2021,04,15,06,01,4.60
2021,04,15,06,02,4.60
2021,04,15,06,03,4.70
2021,04,15,06,04,4.70
2021,04,15,06,05,4.70
2021,04,15,06,06,4.70
2021,04,15,06,07,4.70
2021,04,15,06,08,4.60
2021,04,15,06,09,4.60
2021,04,15,06,10,4.60
2021,04,15,06,11,4.60
2021,04,15,06,12,4.50
2021,04,15,06,13,4.50
2021,04,15,06,14,4.40
2021,04,15,06,15,4.40
2021,04,15,06,16,4.40
2021,04,15,06,17,4.40
2021,04,15,06,18,4.50
2021,04,15,06,19,4.50
2021,04,15,06,20,4.60
2021,04,15,06,21,4.60
2021,04,15,06,22,4.60
2021,04,15,06,23,4.60
2021,04,15,06,24,4.70
2021,04,15,06,25,4.70
2021,04,15,06,26,4.70
2021,04,15,06,27,4.70
2021,04,15,06,28,4.70
2021,04,15,06,29,4.70
2021,04,15,06,30,4.70
2021,04,15,06,31,4.70
2021,04,15,06,32,4.70
2021,04,15,06,33,4.70
2021,04,15,06,34,4.70
2021,04,15,06,35,4.70
2021,04,15,06,36,4.70
2021,04,15,06,37,4.70
2021,04,15,06,38,4.70
2021,04,15,06,39,4.70
2021,04,15,06,40,4.70
2021,04,15,06,41,4.60
2021,04,15,06,42,4.60
2021,04,15,06,43,4.60
2021,04,15,06,44,4.60
2021,04,15,06,45,4.60
2021,04,15,06,46,4.60
2021,04,15,06,47,4.60
2021,04,15,06,48,4.60
2021,04,15,06,49,4.60
2021,04,15,06,50,4.60
2021,04,15,06,51,4.60
2021,04,15,06,52,4.70
2021,04,15,06,53,4.70
2021,04,15,06,54,4.70
2021,04,15,06,55,4.80
2021,04,15,06,56,4.80
2021,04,15,06,57,4.80
2021,04,15,06,58,4.90
2021,04,15,06,59,4.90
2021,04,15,07,00,4.90
2021,04,15,07,01,5.00
2021,04,15,07,02,5.00
2021,04,15,07,03,5.10
2021,04,15,07,04,5.20
2021,04,15,07,05,5.30
2021,04,15,07,06,5.30
2021,04,15,07,07,5.40
2021,04,15,07,08,5.40
2021,04,15,07,09,5.40
2021,04,15,07,10,5.40
2021,04,15,07,11,5.40
2021,04,15,07,12,5.40
2021,04,15,07,13,5.50
2021,04,15,07,14,5.50
2021,04,15,07,15,5.50
2021,04,15,07,16,5.50
2021,04,15,07,17,5.60
2021,04,15,07,18,5.60
2021,04,15,07,19,5.70
2021,04,15,07,20,5.80
2021,04,15,07,21,5.80
2021,04,15,07,22,5.90
2021,04,15,07,23,6.00
2021,04,15,07,24,6.10
2021,04,15,07,25,6.10
2021,04,15,07,26,6.30
2021,04,15,07,27,6.40
2021,04,15,07,28,6.40
2021,04,15,07,29,6.60
2021,04,15,07,30,6.70
2021,04,15,07,31,6.80
2021,04,15,07,32,6.90
2021,04,15,07,33,7.00
2021,04,15,07,34,7.00
2021,04,15,07,35,7.10
2021,04,15,07,36,7.20
2021,04,15,07,37,7.30
2021,04,15,07,38,7.40
2021,04,15,07,39,7.40
2021,04,15,07,40,7.60
2021,04,15,07,41,7.70
2021,04,15,07,42,7.70
2021,04,15,07,43,7.80
2021,04,15,07,44,7.80
2021,04,15,07,45,7.90
2021,04,15,07,46,7.90
2021,04,15,07,47,7.90
2021,04,15,07,48,7.90
2021,04,15,07,49,8.00
2021,04,15,07,50,8.00
2021,04,15,07,51,8.10
2021,04,15,07,52,8.10
2021,04,15,07,53,8.10
2021,04,15,07,54,8.20
2021,04,15,07,55,8.20
2021,04,15,07,56,8.30
2021,04,15,07,57,8.30
2021,04,15,07,58,8.30
2021,04,15,07,59,8.40
2021,04,15,08,00,8.40
2021,04,15,08,01,8.50
2021,04,15,08,02,8.50
2021,04,15,08,03,8.60
2021,04,15,08,04,8.60
2021,04,15,08,05,8.70
2021,04,15,08,06,8.80
2021,04,15,08,07,8.90
2021,04,15,08,08,9.00
2021,04,15,08,09,9.10
2021,04,15,08,10,9.30
2021,04,15,08,11,9.30
2021,04,15,08,12,9.40
2021,04,15,08,13,9.50
2021,04,15,08,14,9.60
2021,04,15,08,15,9.60
2021,04,15,08,16,9.70
2021,04,15,08,17,9.70
2021,04,15,08,18,9.80
2021,04,15,08,19,9.80
2021,04,15,08,20,9.80
2021,04,15,08,21,9.90
2021,04,15,08,22,10.00
2021,04,15,08,23,10.10
2021,04,15,08,24,10.20
2021,04,15,08,25,10.20
2021,04,15,08,26,10.30
2021,04,15,08,27,10.30
2021,04,15,08,28,10.40
2021,04,15,08,29,10.40
2021,04,15,08,30,10.50
2021,04,15,08,31,10.60
2021,04,15,08,32,10.60
2021,04,15,08,33,10.70
2021,04,15,08,34,10.70
2021,04,15,08,35,10.80
2021,04,15,08,36,10.80
2021,04,15,08,37,10.90
2021,04,15,08,38,10.90
2021,04,15,08,39,10.90
2021,04,15,08,40,11.00
2021,04,15,08,41,11.10
2021,04,15,08,42,11.10
2021,04,15,08,43,11.10
2021,04,15,08,44,11.20
2021,04,15,08,45,11.20
2021,04,15,08,46,11.30
2021,04,15,08,47,11.40
2021,04,15,08,48,11.50
2021,04,15,08,49,11.60
2021,04,15,08,50,11.70
2021,04,15,08,51,11.90
2021,04,15,08,52,12.00
2021,04,15,08,53,12.10
2021,04,15,08,54,12.20
2021,04,15,08,55,12.30
2021,04,15,08,56,12.30
2021,04,15,08,57,12.40
2021,04,15,08,58,12.50
2021,04,15,08,59,12.60
2021,04,15,09,00,12.70
2021,04,15,09,01,12.80
2021,04,15,09,02,12.80
2021,04,15,09,03,12.90
2021,04,15,09,04,13.00
2021,04,15,09,05,13.00
2021,04,15,09,06,13.10
2021,04,15,09,07,13.10
2021,04,15,09,08,13.20
2021,04,15,09,09,13.20
2021,04,15,09,10,13.30
2021,04,15,09,11,13.40
2021,04,15,09,12,13.50
2021,04,15,09,13,13.50
2021,04,15,09,14,13.60
2021,04,15,09,15,13.70
2021,04,15,09,16,13.70
2021,04,15,09,17,13.80
2021,04,15,09,18,13.80
2021,04,15,09,19,13.90
2021,04,15,09,20,13.90
2021,04,15,09,21,14.00
2021,04,15,09,22,14.10
2021,04,15,09,23,14.10
2021,04,15,09,24,14.20
2021,04,15,09,25,14.30
2021,04,15,09,26,14.30
2021,04,15,09,27,14.40
2021,04,15,09,28,14.40
2021,04,15,09,29,14.40
2021,04,15,09,30,14.50
2021,04,15,09,31,14.60
2021,04,15,09,32,14.60
2021,04,15,09,33,14.70
2021,04,15,09,34,14.70
2021,04,15,09,35,14.70
2021,04,15,09,36,14.70
2021,04,15,09,37,14.70
2021,04,15,09,38,14.70
2021,04,15,09,39,14.80
2021,04,15,09,40,14.80
2021,04,15,09,41,14.90
2021,04,15,09,42,14.90
2021,04,15,09,43,14.90
2021,04,15,09,44,15.00
2021,04,15,09,45,15.00
2021,04,15,09,46,15.00
2021,04,15,09,47,15.00
2021,04,15,09,48,15.10
2021,04,15,09,49,15.20
2021,04,15,09,50,15.30
2021,04,15,09,51,15.40
2021,04,15,09,52,15.50
2021,04,15,09,53,15.60
2021,04,15,09,54,15.70
2021,04,15,09,55,15.70
2021,04,15,09,56,15.80
2021,04,15,09,57,15.90
2021,04,15,09,58,16.00
2021,04,15,09,59,16.10
2021,04,15,10,00,16.20
2021,04,15,10,01,16.30
2021,04,15,10,02,16.30
2021,04,15,10,03,16.40
2021,04,15,10,04,16.40
2021,04,15,10,05,16.40
2021,04,15,10,06,16.40
2021,04,15,10,07,16.40
2021,04,15,10,08,16.40
2021,04,15,10,09,16.40
2021,04,15,10,10,16.50
2021,04,15,10,11,16.50
2021,04,15,10,12,16.60
2021,04,15,10,13,16.60
2021,04,15,10,14,16.70
2021,04,15,10,15,16.70
2021,04,15,10,16,16.70
2021,04,15,10,17,16.70
2021,04,15,10,18,16.70
2021,04,15,10,19,16.80
2021,04,15,10,20,16.80
2021,04,15,10,21,16.80
2021,04,15,10,22,16.80
2021,04,15,10,23,16.80
2021,04,15,10,24,16.80
2021,04,15,10,25,16.80
2021,04,15,10,26,16.80
2021,04,15,10,27,16.80
2021,04,15,10,28,16.80
2021,04,15,10,29,16.80
2021,04,15,10,30,16.80
2021,04,15,10,31,16.90
2021,04,15,10,32,16.90
2021,04,15,10,33,16.90
2021,04,15,10,34,17.00
2021,04,15,10,35,17.00
2021,04,15,10,36,17.00
2021,04,15,10,37,17.10
2021,04,15,10,38,17.10
2021,04,15,10,39,17.20
2021,04,15,10,40,17.20
2021,04,15,10,41,17.30
2021,04,15,10,42,17.30
2021,04,15,10,43,17.40
2021,04,15,10,44,17.40
2021,04,15,10,45,17.40
2021,04,15,10,46,17.40
2021,04,15,10,47,17.50
2021,04,15,10,48,17.40
2021,04,15,10,49,17.40
2021,04,15,10,50,17.40
2021,04,15,10,51,17.40
2021,04,15,10,52,17.40
2021,04,15,10,53,17.40
2021,04,15,10,54,17.30
2021,04,15,10,55,17.30
2021,04,15,10,56,17.30
2021,04,15,10,57,17.30
2021,04,15,10,58,17.40
2021,04,15,10,59,17.40
2021,04,15,11,00,17.40
2021,04,15,11,01,17.40
2021,04,15,11,02,17.40
2021,04,15,11,03,17.30
2021,04,15,11,04,17.30
2021,04,15,11,05,17.30
2021,04,15,11,06,17.40
2021,04,15,11,07,17.40
2021,04,15,11,08,17.40
2021,04,15,11,09,17.50
2021,04,15,11,10,17.50
2021,04,15,11,11,17.60
2021,04,15,11,12,17.60
2021,04,15,11,13,17.60
2021,04,15,11,14,17.60
2021,04,15,11,15,17.60
2021,04,15,11,16,17.60
2021,04,15,11,17,17.60
2021,04,15,11,18,17.70
2021,04,15,11,19,17.70
2021,04,15,11,20,17.70
2021,04,15,11,21,17.70
2021,04,15,11,22,17.70
2021,04,15,11,23,17.70
2021,04,15,11,24,17.70
2021,04,15,11,25,17.70
2021,04,15,11,26,17.80
2021,04,15,11,27,17.80
2021,04,15,11,28,17.70
2021,04,15,11,29,17.70
2021,04,15,11,30,17.60
2021,04,15,11,31,17.60
2021,04,15,11,32,17.70
2021,04,15,11,33,17.80
2021,04,15,11,34,17.80
2021,04,15,11,35,17.80
2021,04,15,11,36,17.80
2021,04,15,11,37,17.80
2021,04,15,11,38,17.80
2021,04,15,11,39,17.90
2021,04,15,11,40,17.90
2021,04,15,11,41,18.00
2021,04,15,11,42,18.00
2021,04,15,11,43,18.00
2021,04,15,11,44,18.10
2021,04,15,11,45,18.10
2021,04,15,11,46,18.20
2021,04,15,11,47,18.20
2021,04,15,11,48,18.30
2021,04,15,11,49,18.40
2021,04,15,11,50,18.50
2021,04,15,11,51,18.50
2021,04,15,11,52,18.50
2021,04,15,11,53,18.50
2021,04,15,11,54,18.50
2021,04,15,11,55,18.50
2021,04,15,11,56,18.40
2021,04,15,11,57,18.30
2021,04,15,11,58,18.20
2021,04,15,11,59,18.20
2021,04,15,12,00,18.20
2021,04,15,12,01,18.10
2021,04,15,12,02,18.20
2021,04,15,12,03,18.20
2021,04,15,12,04,18.20
2021,04,15,12,05,18.20
2021,04,15,12,06,18.20
2021,04,15,12,07,18.10
2021,04,15,12,08,18.10
2021,04,15,12,09,18.10
2021,04,15,12,10,18.10
2021,04,15,12,11,18.10
2021,04,15,12,12,18.10
2021,04,15,12,13,18.10
2021,04,15,12,14,18.20
2021,04,15,12,15,18.30
2021,04,15,12,16,18.40
2021,04,15,12,17,18.40
2021,04,15,12,18,18.40
2021,04,15,12,19,18.40
2021,04,15,12,20,18.40
2021,04,15,12,21,18.40
2021,04,15,12,22,18.40
2021,04,15,12,23,18.50
2021,04,15,12,24,18.60
2021,04,15,12,25,18.60
2021,04,15,12,26,18.50
2021,04,15,12,27,18.50
2021,04,15,12,28,18.40
2021,04,15,12,29,18.40
2021,04,15,12,30,18.40
2021,04,15,12,31,18.40
2021,04,15,12,32,18.40
2021,04,15,12,33,18.40
2021,04,15,12,34,18.40
2021,04,15,12,35,18.50
2021,04,15,12,36,18.50
2021,04,15,12,37,18.40
2021,04,15,12,38,18.40
2021,04,15,12,39,18.40
2021,04,15,12,40,18.40
2021,04,15,12,41,18.40
2021,04,15,12,42,18.40
2021,04,15,12,43,18.40
2021,04,15,12,44,18.40
2021,04,15,12,45,18.40
2021,04,15,12,46,18.50
2021,04,15,12,47,18.60
2021,04,15,12,48,18.60
2021,04,15,12,49,18.70
2021,04,15,12,50,18.80
2021,04,15,12,51,18.90
2021,04,15,12,52,18.90
2021,04,15,12,53,19.00
2021,04,15,12,54,19.00
2021,04,15,12,55,19.00
2021,04,15,12,56,19.00
2021,04,15,12,57,18.90
2021,04,15,12,58,19.00
2021,04,15,12,59,19.00
2021,04,15,13,00,19.10
2021,04,15,13,01,19.20
2021,04,15,13,02,19.20
2021,04,15,13,03,19.20
2021,04,15,13,04,19.20
2021,04,15,13,05,19.20
2021,04,15,13,06,19.20
2021,04,15,13,07,19.20
2021,04,15,13,08,19.20
2021,04,15,13,09,19.30
2021,04,15,13,10,19.30
2021,04,15,13,11,19.30
2021,04,15,13,12,19.30
2021,04,15,13,13,19.30
2021,04,15,13,14,19.30
2021,04,15,13,15,19.30
2021,04,15,13,16,19.30
2021,04,15,13,17,19.20
2021,04,15,13,18,19.20
2021,04,15,13,19,19.30
2021,04,15,13,20,19.30
2021,04,15,13,21,19.30
2021,04,15,13,22,19.30
2021,04,15,13,23,19.30
2021,04,15,13,24,19.30
2021,04,15,13,25,19.30
2021,04,15,13,26,19.30
2021,04,15,13,27,19.40
2021,04,15,13,28,19.50
2021,04,15,13,29,19.60
2021,04,15,13,30,19.70
2021,04,15,13,31,19.80
2021,04,15,13,32,19.90
2021,04,15,13,33,19.90
2021,04,15,13,34,19.90
2021,04,15,13,35,19.90
2021,04,15,13,36,19.90
2021,04,15,13,37,19.90
2021,04,15,13,38,20.00
2021,04,15,13,39,20.00
2021,04,15,13,40,20.10
2021,04,15,13,41,20.10
2021,04,15,13,42,20.10
2021,04,15,13,43,20.10
2021,04,15,13,44,20.10
2021,04,15,13,45,20.10
2021,04,15,13,46,20.20
2021,04,15,13,47,20.20
2021,04,15,13,48,20.10
2021,04,15,13,49,20.10
2021,04,15,13,50,20.00
2021,04,15,13,51,20.00
2021,04,15,13,52,19.90
2021,04,15,13,53,19.80
2021,04,15,13,54,19.80
2021,04,15,13,55,19.90
2021,04,15,13,56,19.90
2021,04,15,13,57,19.90
2021,04,15,13,58,20.00
2021,04,15,13,59,20.00
2021,04,15,14,00,20.10
2021,04,15,14,01,20.20
2021,04,15,14,02,20.30
2021,04,15,14,03,20.30
2021,04,15,14,04,20.30
2021,04,15,14,05,20.40
2021,04,15,14,06,20.40
2021,04,15,14,07,20.50
2021,04,15,14,08,20.50
2021,04,15,14,09,20.60
2021,04,15,14,10,20.60
2021,04,15,14,11,20.60
2021,04,15,14,12,20.60
2021,04,15,14,13,20.70
2021,04,15,14,14,20.60
2021,04,15,14,15,20.60
2021,04,15,14,16,20.60
2021,04,15,14,17,20.50
2021,04,15,14,18,20.50
2021,04,15,14,19,20.50
2021,04,15,14,20,20.50
2021,04,15,14,21,20.40
2021,04,15,14,22,20.40
2021,04,15,14,23,20.30
2021,04,15,14,24,20.30
2021,04,15,14,25,20.30
2021,04,15,14,26,20.40
2021,04,15,14,27,20.40
2021,04,15,14,28,20.50
2021,04,15,14,29,20.60
2021,04,15,14,30,20.70
2021,04,15,14,31,20.70
2021,04,15,14,32,20.70
2021,04,15,14,33,20.70
2021,04,15,14,34,20.70
2021,04,15,14,35,20.70
2021,04,15,14,36,20.70
2021,04,15,14,37,20.60
2021,04,15,14,38,20.60
2021,04,15,14,39,20.60
2021,04,15,14,40,20.60
2021,04,15,14,41,20.60
2021,04,15,14,42,20.60
2021,04,15,14,43,20.70
2021,04,15,14,44,20.80
2021,04,15,14,45,20.90
2021,04,15,14,46,20.90
2021,04,15,14,47,21.00
2021,04,15,14,48,21.10
2021,04,15,14,49,21.10
2021,04,15,14,50,21.20
2021,04,15,14,51,21.20
2021,04,15,14,52,21.20
2021,04,15,14,53,21.20
2021,04,15,14,54,21.20
2021,04,15,14,55,21.20
2021,04,15,14,56,21.10
2021,04,15,14,57,21.20
2021,04,15,14,58,21.10
2021,04,15,14,59,21.10
2021,04,15,15,00,21.10
2021,04,15,15,01,21.20
2021,04,15,15,02,21.20
2021,04,15,15,03,21.20
2021,04,15,15,04,21.20
2021,04,15,15,05,21.20
2021,04,15,15,06,21.20
2021,04,15,15,07,21.30
2021,04,15,15,08,21.30
2021,04,15,15,09,21.40
2021,04,15,15,10,21.40
2021,04,15,15,11,21.50
2021,04,15,15,12,21.50
2021,04,15,15,13,21.40
2021,04,15,15,14,21.30
2021,04,15,15,15,21.30
2021,04,15,15,16,21.30
2021,04,15,15,17,21.30
2021,04,15,15,18,21.30
2021,04,15,15,19,21.50
2021,04,15,15,20,21.50
2021,04,15,15,21,21.60
2021,04,15,15,22,21.60
2021,04,15,15,23,21.60
2021,04,15,15,24,21.60
2021,04,15,15,25,21.70
2021,04,15,15,26,21.60
2021,04,15,15,27,21.70
2021,04,15,15,28,21.70
2021,04,15,15,29,21.70
2021,04,15,15,30,21.70
2021,04,15,15,31,21.70
2021,04,15,15,32,21.70
2021,04,15,15,33,21.60
2021,04,15,15,34,21.50
2021,04,15,15,35,21.30
2021,04,15,15,36,21.10
2021,04,15,15,37,20.80
2021,04,15,15,38,20.60
2021,04,15,15,39,20.50
2021,04,15,15,40,20.40
2021,04,15,15,41,20.20
2021,04,15,15,42,20.00
2021,04,15,15,43,19.80
2021,04,15,15,44,19.50
2021,04,15,15,45,19.30
2021,04,15,15,46,19.00
2021,04,15,15,47,18.80
2021,04,15,15,48,18.60
2021,04,15,15,49,18.40
2021,04,15,15,50,18.30
2021,04,15,15,51,18.20
2021,04,15,15,52,18.10
2021,04,15,15,53,18.10
2021,04,15,15,54,18.10
2021,04,15,15,55,18.10
2021,04,15,15,56,18.00
2021,04,15,15,57,18.00
2021,04,15,15,58,18.00
2021,04,15,15,59,18.00
2021,04,15,16,00,18.10
2021,04,15,16,01,18.10
2021,04,15,16,02,18.10
2021,04,15,16,03,18.20
2021,04,15,16,04,18.20
2021,04,15,16,05,18.20
2021,04,15,16,06,18.20
2021,04,15,16,07,18.20
2021,04,15,16,08,18.20
2021,04,15,16,09,18.20
2021,04,15,16,10,18.20
2021,04,15,16,11,18.20
2021,04,15,16,12,18.20
2021,04,15,16,13,18.20
2021,04,15,16,14,18.20
2021,04,15,16,15,18.30
2021,04,15,16,16,18.30
2021,04,15,16,17,18.30
2021,04,15,16,18,18.30
2021,04,15,16,19,18.30
2021,04,15,16,20,18.30
2021,04,15,16,21,18.20
2021,04,15,16,22,18.20
2021,04,15,16,23,18.10
2021,04,15,16,24,18.00
2021,04,15,16,25,18.00
2021,04,15,16,26,17.90
2021,04,15,16,27,17.90
2021,04,15,16,28,17.80
2021,04,15,16,29,17.80
2021,04,15,16,30,17.80
2021,04,15,16,31,17.70
2021,04,15,16,32,17.70
2021,04,15,16,33,17.70
2021,04,15,16,34,17.70
2021,04,15,16,35,17.80
2021,04,15,16,36,17.80
2021,04,15,16,37,17.90
2021,04,15,16,38,17.90
2021,04,15,16,39,18.00
2021,04,15,16,40,18.10
2021,04,15,16,41,18.20
2021,04,15,16,42,18.30
2021,04,15,16,43,18.50
2021,04,15,16,44,18.60
2021,04,15,16,45,18.80
2021,04,15,16,46,18.90
2021,04,15,16,47,19.10
2021,04,15,16,48,19.30
2021,04,15,16,49,19.50
2021,04,15,16,50,19.80
2021,04,15,16,51,19.90
2021,04,15,16,52,20.10
2021,04,15,16,53,20.20
2021,04,15,16,54,20.20
2021,04,15,16,55,20.20
2021,04,15,16,56,20.10
2021,04,15,16,57,20.10
2021,04,15,16,58,20.10
2021,04,15,16,59,20.10
2021,04,15,17,00,20.10
2021,04,15,17,01,20.10
2021,04,15,17,02,20.10
2021,04,15,17,03,20.10
2021,04,15,17,04,20.10
2021,04,15,17,05,20.00
2021,04,15,17,06,19.90
2021,04,15,17,07,19.70
2021,04,15,17,08,19.50
2021,04,15,17,09,19.20
2021,04,15,17,10,19.00
2021,04,15,17,11,18.90
2021,04,15,17,12,18.70
2021,04,15,17,13,18.70
2021,04,15,17,14,18.60
2021,04,15,17,15,18.60
2021,04,15,17,16,18.60
2021,04,15,17,17,18.60
2021,04,15,17,18,18.60
2021,04,15,17,19,18.50
2021,04,15,17,20,18.50
2021,04,15,17,21,18.50
2021,04,15,17,22,18.50
2021,04,15,17,23,18.40
2021,04,15,17,24,18.40
2021,04,15,17,25,18.40
2021,04,15,17,26,18.40
2021,04,15,17,27,18.40
2021,04,15,17,28,18.30
2021,04,15,17,29,18.30
2021,04,15,17,30,18.30
2021,04,15,17,31,18.30
2021,04,15,17,32,18.20
2021,04,15,17,33,18.20
2021,04,15,17,34,18.10
2021,04,15,17,35,18.00
2021,04,15,17,36,17.90
2021,04,15,17,37,17.80
2021,04,15,17,38,17.70
2021,04,15,17,39,17.70
2021,04,15,17,40,17.60
2021,04,15,17,41,17.50